{"data":{"norad_id":66130,"epoch":"2026-09-20T11:34:44.782464Z","epoch_age_seconds":101932,"freshness":"FRESH","line1":"1 66130U 25237S   26263.48246276  .00014561  00000+0  44114-3 0  9996","line2":"2 66130  53.1580 213.4554 0000825  74.7045 285.4049 15.34408260 52457","mean_motion":15.3440826,"eccentricity":8.25e-5,"inclination_deg":53.158,"raan_deg":213.4554,"arg_perigee_deg":74.7045,"mean_anomaly_deg":285.4049,"bstar":0.00044114,"rev_number":5245,"period_min":93.847252881707,"perigee_km":462.11432256211,"apogee_km":463.24305715094,"semimajor_km":6840.8156898565,"source":"CELESTRAK","updated_at":"2026-09-21T09:00:35.809624Z"}}